Tracking 27420 objects as of 11-Jun-2023
HD Live streaming from Space Station
objects crossing your sky now

STARLINK-5947

Track STARLINK-5947 now!
10-day predictions
STARLINK-5947 is classified as:


NORAD ID: 55989
Int'l Code: 2023-042D
Perigee: 559.2 km
Apogee: 561.2 km
Inclination: 43.0 °
Period: 95.7 minutes
Semi major axis: 6931 km
RCS: Unknown
Launch date: March 24, 2022
Source: United States (US)
Launch site: AIR FORCE EASTERN TEST RANGE (AFETR)
Your satellite tracking list
Your tracking list is empty




NASA's NSSDC Master Catalog

Two Line Element Set (TLE):
1 55989U 23042D   23161.53651249  .00000086  00000-0  20603-4 0  9994
2 55989  43.0020 107.5142 0001450 267.3615  92.7062 15.04485974 12340
Source of the keplerian elements: AFSPC